Location: Skalnate Pleso
(49.1889°N, 20.2450°E)
Time: 08:38:12
(UTC+01:00)

METEOR-M - Pass Details

Date: 19 November 2019
Orbit: 815 x 820 km, 98.4° (Epoch: 08 December)

Event Time Altitude Azimuth Distance (km) Brightness Sun altitude
Rises 05:47:40 0° 10° (N) 3,356 7.3 -10.9°
Reaches altitude 10° 05:50:04 10° 6° (N) 2,419 6.5 -10.5°
Maximum altitude 05:55:14 53° 291° (WNW) 1,005 4.3 -9.7°
Drops below altitude 10° 06:00:23 10° 216° (SW) 2,404 6.4 -8.9°
Sets 06:02:46 0° 212° (SSW) 3,333 7.2 -8.5°
